Location: Partizánske
(48.6285°N, 18.3769°E)
Time: 19:18:03
(UTC+02:00)

Vanguard 1 Rocket - Visible Passes

Search period start: 07 July 2022 00:00
Search period end: 17 July 2022 00:00
Orbit: 652 x 4224 km, 34.3° (Epoch: 07 July)

Date Brightness Start Highest point End Pass type
(mag) Time Alt. Az. Time Alt. Az. Time Alt. Az.
07 Jul 9.6 00:40:35 10° SW 00:41:05 10° SW 00:41:05 10° SW visible
07 Jul 9.0 23:25:26 10° WSW 23:31:59 21° SSW 23:33:38 19° SSW visible
08 Jul 9.1 22:11:08 10° WSW 22:21:13 30° SSW 22:26:10 15° SSE visible
09 Jul 9.2 23:27:52 10° WSW 23:34:07 19° SW 23:35:57 17° SSW visible
10 Jul 9.2 22:13:07 10° WSW 22:23:26 29° SSW 22:28:29 15° SSE visible
11 Jul 9.5 23:30:31 10° WSW 23:36:07 16° SW 23:38:15 14° SSW visible
12 Jul 9.4 22:15:12 10° W 22:25:32 27° SSW 22:30:47 15° SSE visible
13 Jul 9.8 23:33:35 10° WSW 23:38:00 13° SW 23:40:33 12° SSW visible
14 Jul 9.6 22:17:22 10° W 22:27:30 24° SW 22:33:05 13° S visible
15 Jul 9.8 21:01:51 10° W 21:16:25 35° SSW 21:24:45 10° SE visible
15 Jul 10.0 23:37:51 10° WSW 23:39:46 11° SW 23:41:29 10° SW visible
16 Jul 9.8 22:19:41 10° W 22:29:21 22° SW 22:35:24 11° S visible
